User: anonymous   Login
Location: *
(51.5000°N, 0.1100°W)
Time: 16:58:30
(UTC+00:00)
Language:

OPS 6432 - Orbit

View from above orbital plane
View from above orbital plane
View from above satellite
View from above satellite

Ground track
Ground track

The orbit data is extracted from the following two-line orbital elements,

1 14112U 83056A   24207.38901415  .00012025  00000-0  10228-2 0  9992
2 14112  63.2996 295.9582 0784207 120.3569 247.7395 13.77402753 12515
Epoch (UTC): 25 July 2024 09:20:10
Eccentricity: 0.0784207
inclination: 63.2996°
perigee height: 396 km
apogee height: 1549 km
right ascension of ascending node: 295.9582°
argument of perigee: 120.3569°
revolutions per day: 13.77402753
mean anomaly at epoch: 247.7395°
orbit number at epoch: 1251

The dashed part of the orbit path shows where the satellite is in the earth's shadow,  

DLR